Regional Weather Roundup
Issued by NWS

Home | Current Version | Previous Version | Text Only | Print | Product List | Glossary Off
Versions: 1 2 3 4 5 6 7 8 9 10 11 12 13 14 15 16 17 18 19 20 21 22 23 24 25 26 27 28 29 30 31 32 33 34 35 36 37 38 39 40 41 42 43 44 45 46 47 48 49 50

000
ASUS45 KABQ 020301
RWRNM
WEATHER ROUNDUP FOR NEW MEXICO
NATIONAL WEATHER SERVICE ALBUQUERQUE NM
900 PM MDT MON SEP 01 2014

NOTE: "FAIR" MEANS FEW OR NO CLOUDS BELOW 12,000 FEET AGL WITH NO
       SIGNIFICANT WEATHER OR OBSTRUCTIONS TO VISION.

      THIS PRODUCT IS RELEASED AS TWO VERSIONS.  ONE VERSION NEAR
      THE TOP OF THE HOUR CONTAINING PRELIMINARY DATA FROM ALBUQUERQUE
      AND OTHER STATIONS.  A FINAL VERSION WITH ADDITIONAL DATA IS
      ISSUED ABOUT 10 MINUTES AFTER THE HOUR.

NMZ501-503-504-510>518-020400-
NORTHWEST PLATEAU/NORTHCENTRAL MOUNTAINS

CITY           SKY/WX    TMP DP  RH WIND       PRES   REMARKS
FARMINGTON     CLEAR     77  27  15 CALM      30.06R
LOS ALAMOS     CLEAR     74  28  18 NW7       30.22R
SANTA FE       CLEAR     70  31  23 NW7       30.12R
ANGEL FIRE     FAIR      56  29  35 CALM      30.29R

$$
NMZ402-403-502-505>509-020400-
WESTCENTRAL MOUNTAINS/SOUTHWEST MOUNTAINS

CITY           SKY/WX    TMP DP  RH WIND       PRES   REMARKS
GALLUP         CLEAR     75  33  21 SW5       30.16R
SILVER CITY    CLEAR     73  32  21 W8        30.11R

$$
NMZ407-409-411-412-020400-
SOUTHERN DESERTS

CITY           SKY/WX    TMP DP  RH WIND       PRES   REMARKS
LORDSBURG      FAIR      79  36  21 W5        30.00R
DEMING         CLEAR     84  35  17 W10       29.99R
LAS CRUCES     CLEAR     84  32  15 W10       30.01R
HOLLOMAN AFB   CLEAR     80  37  21 E5        29.95R
ALAMOGORDO     CLEAR     77  34  20 E9        29.97R
T OR C         CLEAR     83  36  18 SE5       29.99R

$$
NMZ519>523-020400-
CENTRAL VALLEYS/CENTRAL HIGHLANDS

CITY           SKY/WX    TMP DP  RH WIND       PRES   REMARKS
ALBUQUERQUE    CLEAR     82  38  20 SE5       30.04R
DOUBLE EAGLE   CLEAR     75  37  25 W3        30.09R
CLINES CORNERS CLEAR     66  37  34 W12       30.18R
BELEN          FAIR      76  36  23 SW8       30.03R
SOCORRO        FAIR      78  42  27 SW6       30.02R

$$
NMZ524>526-539-540-020400-
SOUTHCENTRAL MOUNTAINS

CITY           SKY/WX    TMP DP  RH WIND       PRES   REMARKS
RUIDOSO        NOT AVBL

$$
NMZ527>531-020400-
NORTHEAST HIGHLANDS/NORTHEAST PLAINS

CITY           SKY/WX    TMP DP  RH WIND       PRES   REMARKS
LAS VEGAS      CLEAR     69  35  28 W6        30.16R
RATON          CLEAR     71  31  22 W6        30.07R
CLAYTON        CLEAR     68  55  63 SE7       30.00R

$$
NMZ532>537-020400-
EASTCENTRAL PLAINS

CITY           SKY/WX    TMP DP  RH WIND       PRES   REMARKS
TUCUMCARI      CLEAR     79  39  23 SW8       29.90R
CANNON AFB     CLEAR     80  45  28 CALM      29.96R
CLOVIS AIRPORT   N/A     79  41  25 CALM      29.97S

$$
NMZ028-029-538-020400-
SOUTHEAST PLAINS

CITY           SKY/WX    TMP DP  RH WIND       PRES   REMARKS
ROSWELL        CLEAR     86  42  21 S9        29.89R
CARLSBAD       CLEAR     87  37  17 SW10      29.87R
HOBBS          CLEAR     84  41  21 SW5       29.92S


$$


USA.gov is the U.S. government's official web portal to all federal, state and local government web resources and services.